EW4355 Weather Reports


Display with metric or nautical units.
time (UTC)temp
F
wind
direction
speed
MPH
gust
MPH
rain 1hr
in
rain 24hr
in
rain mn
in
humidity
%
barometer
mb
20260504120129 63 202 1.0 3.0 0.00 0.01 0.01 64 1007.6
20260504081538 63 79 0.0 1.0 0.01 0.01 0.01 65 1007.6
20260504050002 68 208 2.0 8.0 0.00 0.00 0.00 49 1007.4
20260504044505 69 163 1.0 9.0 0.00 0.00 0.00 48 1007.3
20260504043114 69 249 1.0 3.0 0.00 0.00 0.00 47 1007.6
20260504041559 69 188 0.0 2.0 0.00 0.00 0.00 47 1008.2
20260504040057 70 202 1.0 5.0 0.00 0.00 0.00 46 1007.8
20260504034556 70 178 2.0 6.0 0.00 0.00 0.00 45 1008.5
20260504033104 70 201 0.0 2.0 0.00 0.00 0.00 45 1008.8
20260504031558 70 190 0.0 3.0 0.00 0.00 0.00 45 1009.0
20260504030109 70 200 0.0 2.0 0.00 0.00 0.00 45 1008.9
20260504024555 70 200 0.0 2.0 0.00 0.00 0.00 47 1008.9
20260504023051 71 201 0.0 1.0 0.00 0.00 0.00 44 1009.0
20260504021552 72 198 0.0 2.0 0.00 0.00 0.00 42 1008.9
20260504020054 73 212 0.0 3.0 0.00 0.00 0.00 39 1008.6
20260504014550 73 152 0.0 3.0 0.00 0.00 0.00 39 1008.5
20260504013053 74 236 2.0 5.0 0.00 0.00 0.00 38 1008.3
20260504011549 74 158 1.0 3.0 0.00 0.00 0.00 37 1008.2
20260504010055 74 196 1.0 3.0 0.00 0.00 0.00 36 1008.2
20260504004547 74 165 0.0 3.0 0.00 0.00 0.00 36 1008.1
20260504003045 75 182 1.0 4.0 0.00 0.00 0.00 34 1008.1
20260504001548 75 239 0.0 3.0 0.00 0.00 0.00 34 1008.2
20260504000046 76 292 1.0 7.0 0.00 0.00 0.00 33 1008.3
20260503234543 77 190 0.0 5.0 0.00 0.00 0.00 31 1008.4
20260503233041 77 250 1.0 5.0 0.00 0.00 0.00 30 1008.6
20260503231539 78 202 1.0 5.0 0.00 0.00 0.00 29 1008.7
20260503230053 78 170 1.0 8.0 0.00 0.00 0.00 29 1008.8
20260503224537 78 294 0.0 8.0 0.00 0.00 0.00 28 1008.9
20260503223038 78 249 2.0 9.0 0.00 0.00 0.00 27 1009.0
20260503221541 79 202 0.0 7.0 0.00 0.00 0.00 27 1009.0
20260503220037 80 228 2.0 5.0 0.00 0.00 0.00 25 1009.3
20260503214546 80 27 1.0 8.0 0.00 0.01 0.00 26 1009.4
20260503213034 80 246 2.0 8.0 0.00 0.01 0.00 26 1009.5
20260503211529 79 308 2.0 8.0 0.00 0.01 0.00 25 1009.6
20260503210028 79 165 2.0 8.0 0.00 0.01 0.00 27 1009.8
20260503204528 79 236 1.0 6.0 0.00 0.01 0.00 28 1010.0
20260503203025 79 15 3.0 9.0 0.00 0.01 0.00 26 1010.3
20260503201518 78 277 2.0 8.0 0.00 0.01 0.00 31 1010.7
20260503200015 77 166 3.0 12.0 0.00 0.01 0.00 28 1011.0
20260503194511 77 165 2.0 7.0 0.00 0.01 0.00 30 1011.5
20260503193008 75 171 3.0 15.0 0.00 0.01 0.00 30 1011.9
20260503191506 76 145 3.0 13.0 0.00 0.01 0.00 31 1012.3
20260503190006 75 160 4.0 9.0 0.00 0.01 0.00 31 1012.7
20260503184601 75 163 3.0 8.0 0.00 0.01 0.00 30 1012.9
20260503183104 73 130 3.0 9.0 0.00 0.01 0.00 31 1013.2
20260503181606 73 172 4.0 8.0 0.00 0.01 0.00 31 1013.6
20260503180053 72 120 2.0 8.0 0.00 0.01 0.00 31 1014.4
20260503174553 72 137 2.0 10.0 0.00 0.01 0.00 31 1014.8
20260503173046 71 253 3.0 11.0 0.00 0.01 0.00 34 1015.5
20260503171542 71 250 2.0 8.0 0.00 0.01 0.00 37 1015.8